• In Hungary
  • List of Countries
  • For 7 days
  • Water Temperature
  • Satellite Maps
  • Weather Map
  • News
  • Weather Widgets
  • user-avatar
    Login

    Hourly Weather Fagernes

    Today, 24 October, Wednesday

    Time Temperature Precipitation Wind Pressure Humidity
    00:00 -1°C° 0 mm 3 mps 718 mmHg 76%
    01:00 -1°C° 0 mm 3 mps 719 mmHg 77%
    02:00 -2°C° 0 mm 3 mps 719 mmHg 76%
    03:00 -2°C° 0 mm 3 mps 720 mmHg 75%
    04:00 -2°C° 0 mm 3 mps 720 mmHg 75%
    05:00 -2°C° 0 mm 3 mps 720 mmHg 75%
    06:00 -2°C° 0 mm 3 mps 721 mmHg 74%
    07:00 -2°C° 0 mm 3 mps 721 mmHg 74%
    08:00 -1°C° 0 mm 3 mps 722 mmHg 70%
    09:00 0°C° 0 mm 3 mps 722 mmHg 67%
    10:00 +1°C° 0 mm 3 mps 722 mmHg 63%
    11:00 +2°C° 0 mm 3 mps 722 mmHg 61%
    12:00 +2°C° 0 mm 3 mps 722 mmHg 60%
    13:00 +3°C° 0 mm 3 mps 722 mmHg 58%
    14:00 +3°C° 0 mm 3 mps 721 mmHg 61%
    15:00 +3°C° 0 mm 2 mps 721 mmHg 64%
    16:00 +3°C° 0 mm 2 mps 720 mmHg 67%
    17:00 +2°C° 0 mm 2 mps 719 mmHg 70%
    18:00 +2°C° 0 mm 2 mps 718 mmHg 74%
    19:00 +1°C° 0 mm 2 mps 718 mmHg 78%
    20:00 +1°C° 0 mm 2 mps 717 mmHg 80%
    21:00 +2°C° 0 mm 2 mps 716 mmHg 81%
    22:00 +1°C° 0 mm 3 mps 715 mmHg 83%
    23:00 +1°C° 0 mm 3 mps 714 mmHg 83%

    Tomorrow, 25 October, Thursday

    Time Temperature Precipitation Wind Pressure Humidity
    00:00 +1°C° 0 mm 4 mps 714 mmHg 83%
    01:00 +1°C° 0 mm 5 mps 713 mmHg 83%
    02:00 +2°C° 0 mm 5 mps 713 mmHg 80%
    03:00 +2°C° 0 mm 5 mps 712 mmHg 77%
    04:00 +2°C° 0 mm 5 mps 712 mmHg 75%
    05:00 +2°C° 0 mm 5 mps 712 mmHg 75%
    06:00 +2°C° 0 mm 5 mps 712 mmHg 76%
    07:00 +2°C° 0 mm 5 mps 712 mmHg 77%
    08:00 +4°C° 0 mm 4 mps 713 mmHg 74%
    09:00 +5°C° 0 mm 4 mps 713 mmHg 71%
    10:00 +5°C° 0 mm 4 mps 714 mmHg 69%
    11:00 +6°C° 0 mm 4 mps 714 mmHg 66%
    12:00 +6°C° 0 mm 4 mps 714 mmHg 63%
    13:00 +8°C° 0 mm 3 mps 714 mmHg 61%
    14:00 +7°C° 0 mm 3 mps 714 mmHg 66%
    15:00 +6°C° 0 mm 2 mps 714 mmHg 71%
    16:00 +6°C° 0 mm 1 mps 714 mmHg 77%
    17:00 +5°C° 0.2 mm 1 mps 714 mmHg 80%
    18:00 +4°C° 0.2 mm 1 mps 714 mmHg 84%
    19:00 +4°C° 0.2 mm 1 mps 714 mmHg 87%
    20:00 +4°C° 0.4 mm 1 mps 714 mmHg 89%
    21:00 +3°C° 0.4 mm 1 mps 714 mmHg 91%
    22:00 +3°C° 0.4 mm 1 mps 714 mmHg 92%
    23:00 +3°C° 0.7 mm 1 mps 714 mmHg 93%

    Day after tomorrow, 26 October, Friday

    Time Temperature Precipitation Wind Pressure Humidity
    00:00 +3°C° 0.7 mm 1 mps 714 mmHg 93%
    01:00 +2°C° 0.7 mm 1 mps 714 mmHg 94%
    02:00 +2°C° 0.6 mm 1 mps 714 mmHg 94%
    03:00 +2°C° 0.6 mm 1 mps 714 mmHg 95%
    04:00 +2°C° 0.6 mm 1 mps 713 mmHg 95%
    05:00 +2°C° 0.2 mm 1 mps 714 mmHg 95%
    06:00 +1°C° 0.2 mm 1 mps 714 mmHg 95%
    07:00 +1°C° 0.2 mm 1 mps 714 mmHg 95%
    08:00 +2°C° 0.1 mm 1 mps 714 mmHg 92%
    09:00 +2°C° 0.1 mm 1 mps 714 mmHg 89%
    10:00 +2°C° 0.1 mm 1 mps 714 mmHg 87%
    11:00 +3°C° 0 mm 1 mps 714 mmHg 82%
    12:00 +2°C° 0 mm 2 mps 714 mmHg 78%
    13:00 +2°C° 0 mm 2 mps 715 mmHg 74%
    14:00 +2°C° 0 mm 2 mps 715 mmHg 77%
    15:00 +2°C° 0 mm 1 mps 715 mmHg 80%
    16:00 +1°C° 0 mm 1 mps 715 mmHg 83%
    17:00 0°C° 0 mm 1 mps 715 mmHg 84%
    18:00 -3°C° 0 mm 2 mps 715 mmHg 85%
    19:00 -4°C° 0 mm 2 mps 715 mmHg 86%
    20:00 -4°C° 0 mm 2 mps 716 mmHg 85%
    21:00 -2°C° 0 mm 1 mps 716 mmHg 84%
    22:00 -2°C° 0 mm 1 mps 716 mmHg 84%
    23:00 -3°C° 0 mm 1 mps 716 mmHg 83%

    27 October, Saturday

    Time Temperature Precipitation Wind Pressure Humidity
    00:00 -3°C° 0 mm 1 mps 716 mmHg 83%
    01:00 -3°C° 0 mm 1 mps 717 mmHg 82%
    02:00 -3°C° 0 mm 1 mps 717 mmHg 82%
    03:00 -3°C° 0 mm 1 mps 717 mmHg 82%
    04:00 -3°C° 0 mm 1 mps 717 mmHg 82%
    05:00 -3°C° 0.1 mm 1 mps 718 mmHg 83%
    06:00 -3°C° 0.1 mm 1 mps 718 mmHg 83%
    07:00 -5°C° 0.1 mm 2 mps 719 mmHg 83%
    08:00 -4°C° 0.1 mm 2 mps 720 mmHg 82%
    09:00 -3°C° 0.1 mm 2 mps 720 mmHg 81%
    10:00 -2°C° 0.1 mm 2 mps 721 mmHg 80%
    11:00 -2°C° 0 mm 2 mps 722 mmHg 76%
    12:00 -2°C° 0 mm 2 mps 722 mmHg 72%
    13:00 -1°C° 0 mm 3 mps 723 mmHg 68%
    14:00 -2°C° 0 mm 2 mps 723 mmHg 71%
    15:00 -3°C° 0 mm 2 mps 724 mmHg 73%
    16:00 -3°C° 0 mm 2 mps 724 mmHg 76%
    17:00 -4°C° 0 mm 2 mps 725 mmHg 77%
    18:00 -5°C° 0 mm 2 mps 725 mmHg 78%
    19:00 -6°C° 0 mm 2 mps 726 mmHg 80%
    20:00 -6°C° 0 mm 2 mps 727 mmHg 78%
    21:00 -6°C° 0 mm 2 mps 727 mmHg 76%
    22:00 -7°C° 0 mm 2 mps 727 mmHg 74%
    23:00 -7°C° 0 mm 2 mps 728 mmHg 74%

    28 October, Sunday

    Time Temperature Precipitation Wind Pressure Humidity
    00:00 -6°C° 0 mm 1 mps 728 mmHg 73%
    01:00 -6°C° 0 mm 1 mps 728 mmHg 73%
    02:00 -6°C° 0 mm 1 mps 729 mmHg 73%
    03:00 -6°C° 0 mm 1 mps 729 mmHg 73%
    04:00 -6°C° 0 mm 1 mps 729 mmHg 74%
    05:00 -6°C° 0 mm 1 mps 729 mmHg 74%
    06:00 -6°C° 0 mm 1 mps 730 mmHg 74%
    07:00 -6°C° 0 mm 1 mps 730 mmHg 74%
    08:00 -4°C° 0 mm 1 mps 731 mmHg 72%
    09:00 -3°C° 0 mm 1 mps 731 mmHg 70%
    10:00 -2°C° 0 mm 1 mps 732 mmHg 68%
    11:00 -2°C° 0 mm 0 mps 732 mmHg 65%
    12:00 -1°C° 0 mm 0 mps 732 mmHg 63%
    13:00 0°C° 0 mm 0 mps 732 mmHg 60%
    14:00 -1°C° 0 mm 0 mps 732 mmHg 64%
    15:00 -2°C° 0 mm 0 mps 732 mmHg 68%
    16:00 -3°C° 0 mm 0 mps 732 mmHg 71%
    17:00 -3°C° 0 mm 0 mps 732 mmHg 73%
    18:00 -3°C° 0 mm 1 mps 733 mmHg 74%
    19:00 -4°C° 0 mm 1 mps 733 mmHg 75%
    20:00 -4°C° 0 mm 1 mps 733 mmHg 75%
    21:00 -4°C° 0 mm 1 mps 733 mmHg 75%
    22:00 -6°C° 0 mm 1 mps 734 mmHg 74%
    23:00 -6°C° 0 mm 1 mps 734 mmHg 74%

    29 October, Monday

    Time Temperature Precipitation Wind Pressure Humidity
    00:00 -6°C° 0 mm 1 mps 734 mmHg 74%
    01:00 -6°C° 0 mm 1 mps 734 mmHg 73%
    02:00 -6°C° 0 mm 1 mps 733 mmHg 73%
    03:00 -6°C° 0 mm 1 mps 733 mmHg 73%
    04:00 -7°C° 0 mm 1 mps 733 mmHg 73%
    05:00 -7°C° 0 mm 0 mps 733 mmHg 73%
    06:00 -7°C° 0 mm 0 mps 733 mmHg 74%
    07:00 -7°C° 0 mm 0 mps 733 mmHg 74%
    08:00 -6°C° 0 mm 0 mps 733 mmHg 72%
    09:00 -5°C° 0 mm 0 mps 734 mmHg 70%
    10:00 -4°C° 0 mm 0 mps 734 mmHg 69%
    11:00 -2°C° 0 mm 1 mps 734 mmHg 69%
    12:00 -2°C° 0 mm 1 mps 734 mmHg 69%
    13:00 -1°C° 0 mm 1 mps 733 mmHg 69%
    14:00 -2°C° 0 mm 1 mps 733 mmHg 75%
    15:00 -2°C° 0 mm 1 mps 733 mmHg 81%
    16:00 -3°C° 0 mm 1 mps 733 mmHg 87%
    17:00 -3°C° 0 mm 1 mps 733 mmHg 89%
    18:00 -4°C° 0 mm 1 mps 734 mmHg 91%
    19:00 -4°C° 0 mm 1 mps 734 mmHg 94%
    20:00 -4°C° 0 mm 1 mps 734 mmHg 93%
    21:00 -6°C° 0 mm 2 mps 734 mmHg 93%
    22:00 -7°C° 0 mm 2 mps 735 mmHg 93%
    23:00 -6°C° 0.1 mm 2 mps 735 mmHg 92%

    30 October, Tuesday

    Time Temperature Precipitation Wind Pressure Humidity
    00:00 -6°C° 0.1 mm 2 mps 734 mmHg 92%
    01:00 -6°C° 0.1 mm 2 mps 734 mmHg 92%
    02:00 -6°C° 0.1 mm 2 mps 734 mmHg 92%
    03:00 -6°C° 0.1 mm 3 mps 734 mmHg 91%
    04:00 -6°C° 0.1 mm 3 mps 733 mmHg 91%
    05:00 -6°C° 0.2 mm 3 mps 733 mmHg 91%
    06:00 -6°C° 0.2 mm 3 mps 733 mmHg 90%
    07:00 -7°C° 0.2 mm 4 mps 733 mmHg 90%
    08:00 -7°C° 0.2 mm 4 mps 732 mmHg 88%
    09:00 -7°C° 0.2 mm 4 mps 732 mmHg 86%
    10:00 -7°C° 0.2 mm 4 mps 732 mmHg 85%
    11:00 -7°C° 0.1 mm 4 mps 731 mmHg 82%
    12:00 -5°C° 0.1 mm 4 mps 730 mmHg 79%
    13:00 -6°C° 0.1 mm 5 mps 729 mmHg 77%
    14:00 -5°C° 0.1 mm 4 mps 729 mmHg 80%
    15:00 -5°C° 0.1 mm 4 mps 728 mmHg 83%
    16:00 -5°C° 0.1 mm 4 mps 728 mmHg 86%
    17:00 -5°C° 0.5 mm 4 mps 727 mmHg 89%
    18:00 -5°C° 0.5 mm 4 mps 726 mmHg 91%
    19:00 -5°C° 0.5 mm 4 mps 726 mmHg 93%
    20:00 -5°C° 0.8 mm 4 mps 725 mmHg 93%
    21:00 -5°C° 0.8 mm 4 mps 724 mmHg 94%
    22:00 -5°C° 0.8 mm 4 mps 723 mmHg 94%
    23:00 -4°C° 1.1 mm 4 mps 722 mmHg 95%
    Show more